VA3PPY Weather Reports


time (UTC)temp
C
wind
direction
speed
KPH
gust
KPH
rain 1hr
cm
rain 24hr
cm
rain mn
cm
humidity
%
barometer
mb
20260507130010 6 3 3.2 6.4 0.00 0.00 0.00 76 1012.5
20260507124508 6 61 0.0 6.4 0.00 0.00 0.00 75 1012.5
20260507123017 5 78 1.6 4.8 0.00 0.00 0.00 76 1012.6
20260507121509 4 78 0.0 1.6 0.00 0.00 0.00 75 1012.5
20260507120009 3 78 0.0 0.0 0.00 0.00 0.00 76 1012.4
20260507114515 3 78 0.0 0.0 0.00 0.00 0.00 76 1012.3
20260507113009 3 78 0.0 3.2 0.00 0.00 0.00 78 1012.1
20260507111518 2 78 0.0 4.8 0.00 0.00 0.00 79 1011.9
20260507110009 2 78 0.0 1.6 0.00 0.00 0.00 79 1011.6
20260507104509 2 78 0.0 3.2 0.00 0.00 0.00 79 1011.7
20260507103009 2 78 0.0 0.0 0.00 0.00 0.00 80 1011.7
20260507101517 2 78 0.0 0.0 0.00 0.00 0.00 79 1011.7
20260507100009 1 78 0.0 3.2 0.00 0.00 0.00 79 1011.7
20260507094509 1 78 0.0 1.6 0.00 0.00 0.00 79 1011.7
20260507093009 2 78 0.0 1.6 0.00 0.00 0.00 76 1011.6
20260507091511 2 78 0.0 0.0 0.00 0.00 0.00 76 1011.7
20260507090009 2 78 0.0 0.0 0.00 0.00 0.00 75 1011.9
20260507084517 2 78 0.0 1.6 0.00 0.00 0.00 75 1011.8
20260507083010 2 78 0.0 0.0 0.00 0.00 0.00 74 1011.8
20260507081513 3 78 0.0 3.2 0.00 0.00 0.00 73 1011.8
20260507080009 3 78 0.0 3.2 0.00 0.00 0.00 71 1011.8
20260507074523 3 78 1.6 4.8 0.00 0.00 0.00 72 1011.8
20260507073010 4 78 3.2 8.0 0.00 0.00 0.00 71 1011.9
20260507071510 4 78 1.6 6.4 0.00 0.00 0.00 71 1011.9
20260507070013 4 78 3.2 6.4 0.00 0.00 0.00 70 1012.2
20260507064510 5 61 3.2 9.7 0.00 0.00 0.00 73 1012.5
20260507063010 5 360 1.6 6.4 0.00 0.00 0.00 74 1012.5
20260507061512 5 360 3.2 9.7 0.00 0.00 0.00 74 1012.4
20260507060010 5 12 3.2 9.7 0.00 0.00 0.00 75 1012.5
20260507054510 6 27 3.2 14.5 0.00 0.00 0.00 75 1012.5
20260507053010 5 17 3.2 9.7 0.00 0.00 0.00 76 1012.5
20260507051510 5 347 3.2 8.0 0.00 0.00 0.00 76 1012.6
20260507050010 5 351 3.2 12.9 0.00 0.00 0.00 80 1012.7
20260507044511 5 319 1.6 11.3 0.00 0.00 0.00 82 1012.6
20260507043010 5 340 1.6 8.0 0.00 0.00 0.00 85 1012.7
20260507041512 5 311 3.2 8.0 0.00 0.00 0.00 85 1012.5
20260507040010 5 330 0.0 8.0 0.00 0.00 0.00 83 1012.5
20260507034510 5 330 0.0 0.0 0.00 0.00 0.00 81 1012.4
20260507033011 5 330 0.0 0.0 0.00 0.00 0.00 81 1012.4
20260507031512 5 330 0.0 0.0 0.00 0.00 0.00 79 1012.3
20260507030017 5 330 0.0 0.0 0.00 0.00 0.00 81 1012.5
20260507024518 5 330 0.0 0.0 0.00 0.00 0.00 78 1012.3
20260507023011 5 330 0.0 0.0 0.00 0.00 0.00 78 1012.3
20260507021511 5 330 0.0 0.0 0.00 0.00 0.00 79 1012.2
20260507020012 5 330 0.0 0.0 0.00 0.00 0.00 78 1012.2
20260507014517 5 330 0.0 0.0 0.00 0.00 0.00 78 1012.4
20260507013011 5 330 0.0 0.0 0.00 0.00 0.00 78 1012.3
20260507011525 5 330 0.0 0.0 0.00 0.00 0.00 78 1012.3
20260507010017 5 330 0.0 1.6 0.00 0.00 0.00 77 1012.4
20260507004511 5 330 0.0 0.0 0.00 0.00 0.00 78 1012.4
20260507003016 5 330 0.0 0.0 0.00 0.00 0.00 77 1012.4
20260507001511 5 330 0.0 3.2 0.00 0.00 0.00 76 1012.3
20260507000011 5 330 0.0 0.0 0.00 0.00 0.00 75 1012.1
20260506234512 5 330 0.0 3.2 0.00 0.03 0.00 76 1012.0
20260506233012 5 330 0.0 3.2 0.00 0.03 0.00 74 1012.2
20260506231512 6 330 0.0 4.8 0.00 0.03 0.00 72 1012.2
20260506230015 6 330 0.0 4.8 0.00 0.03 0.00 70 1012.3
20260506224514 6 330 3.2 8.0 0.00 0.03 0.00 69 1012.5
20260506223012 6 314 3.2 12.9 0.00 0.03 0.00 64 1012.4
20260506221512 7 359 1.6 11.3 0.00 0.03 0.00 67 1012.4
20260506220012 7 360 0.0 8.0 0.00 0.03 0.00 65 1012.5
20260506214518 6 345 1.6 12.9 0.00 0.03 0.00 64 1012.3
20260506213012 7 29 8.0 14.5 0.00 0.03 0.00 66 1012.4
20260506211512 6 330 4.8 14.5 0.00 0.03 0.00 65 1012.0
20260506210014 7 358 1.6 12.9 0.00 0.03 0.00 69 1012.3
20260506204514 6 26 6.4 12.9 0.00 0.03 0.00 68 1012.2
20260506203014 6 2 4.8 12.9 0.00 0.03 0.00 68 1012.2
20260506201518 6 56 3.2 9.7 0.00 0.03 0.00 69 1012.3
20260506200015 6 22 3.2 9.7 0.00 0.03 0.00 68 1012.5
20260506194513 6 4 4.8 16.1 0.00 0.03 0.00 71 1012.6
20260506193013 6 358 1.6 9.7 0.00 0.03 0.00 74 1012.5
20260506191513 4 359 3.2 12.9 0.00 0.03 0.00 72 1012.6
20260506190012 5 3 6.4 14.5 0.00 0.03 0.00 71 1012.8
20260506184521 5 323 6.4 12.9 0.00 0.03 0.00 72 1013.0
20260506183014 5 1 4.8 16.1 0.00 0.03 0.00 72 1013.3
20260506181513 4 314 6.4 17.7 0.00 0.03 0.00 74 1013.2
20260506180013 4 330 6.4 14.5 0.00 0.03 0.00 75 1013.0
20260506174513 4 351 4.8 14.5 0.00 0.03 0.00 74 1012.8
20260506173013 4 290 6.4 16.1 0.00 0.03 0.00 74 1013.0
20260506171513 5 315 4.8 16.1 0.00 0.03 0.00 74 1013.0
20260506170014 5 323 4.8 14.5 0.00 0.03 0.00 73 1013.0
20260506164514 6 281 4.8 14.5 0.00 0.03 0.00 73 1012.8
20260506163014 5 296 3.2 17.7 0.00 0.03 0.00 75 1012.8
20260506161514 5 328 4.8 14.5 0.00 0.03 0.00 76 1012.7
20260506160015 5 311 6.4 22.5 0.00 0.03 0.00 77 1012.6
20260506154513 5 241 3.2 17.7 0.00 0.03 0.00 78 1012.5
20260506153013 5 356 6.4 17.7 0.00 0.03 0.00 77 1012.4
20260506151514 5 297 6.4 19.3 0.00 0.03 0.00 77 1011.9
20260506150014 5 315 8.0 16.1 0.00 0.03 0.00 75 1011.8
20260506144527 5 288 4.8 19.3 0.00 0.03 0.00 76 1011.4
20260506143014 5 311 9.7 27.4 0.00 0.03 0.00 76 1011.1
20260506141514 5 342 8.0 24.1 0.00 0.03 0.00 77 1010.7
20260506140014 5 290 9.7 24.1 0.00 0.03 0.00 78 1010.6
20260506134514 5 309 8.0 20.9 0.00 0.03 0.00 78 1010.4
20260506133014 5 307 6.4 25.7 0.00 0.03 0.00 79 1010.3
20260506131514 5 305 6.4 20.9 0.00 0.03 0.00 79 1010.2